When you browse on this site, cookies collect data to enhance your experience and personalize the content and advertising you see.
Visit our Privacy Policy to learn more. By continuing to use the site, you agree to this use of cookies and data.
  • In Slovakia
  • List of Countries
  • For 7 days
  • Water Temperature
  • Weather Map
  • Weather Widgets
  • user-avatar
    Login

    Hourly Weather Rayguba

    Today, 31 March, Tuesday

    Time Temperature Precipitation Wind Pressure Humidity
    00:00 -8°C° 0 mm 2 mps 759 mmHg 85%
    01:00 -7°C° 0 mm 1 mps 759 mmHg 86%
    02:00 -8°C° 0 mm 1 mps 760 mmHg 87%
    03:00 -8°C° 0 mm 1 mps 759 mmHg 87%
    04:00 -8°C° 0 mm 1 mps 759 mmHg 88%
    05:00 -8°C° 0 mm 1 mps 759 mmHg 88%
    06:00 -7°C° 0 mm 1 mps 759 mmHg 84%
    07:00 -7°C° 0 mm 2 mps 758 mmHg 79%
    08:00 -6°C° 0 mm 2 mps 758 mmHg 75%
    09:00 -5°C° 0 mm 2 mps 758 mmHg 67%
    10:00 -5°C° 0 mm 3 mps 757 mmHg 59%
    11:00 -4°C° 0 mm 3 mps 756 mmHg 52%
    12:00 -2°C° 0 mm 3 mps 755 mmHg 51%
    13:00 -3°C° 0 mm 4 mps 754 mmHg 51%
    14:00 -3°C° 0 mm 4 mps 754 mmHg 50%
    15:00 -3°C° 0 mm 4 mps 752 mmHg 52%
    16:00 -4°C° 0 mm 4 mps 751 mmHg 54%
    17:00 -4°C° 0 mm 4 mps 750 mmHg 55%
    18:00 -5°C° 0 mm 4 mps 749 mmHg 63%
    19:00 -5°C° 0 mm 4 mps 748 mmHg 71%
    20:00 -6°C° 0 mm 5 mps 747 mmHg 79%
    21:00 -6°C° 0.2 mm 5 mps 745 mmHg 83%
    22:00 -6°C° 0.2 mm 5 mps 744 mmHg 87%
    23:00 -6°C° 0.2 mm 5 mps 742 mmHg 92%

    Tomorrow, 1 April, Wednesday

    Time Temperature Precipitation Wind Pressure Humidity
    00:00 -6°C° 0.4 mm 5 mps 742 mmHg 92%
    01:00 -6°C° 0.4 mm 5 mps 741 mmHg 92%
    02:00 -5°C° 0.4 mm 5 mps 740 mmHg 93%
    03:00 -4°C° 0.2 mm 4 mps 739 mmHg 93%
    04:00 -4°C° 0.2 mm 4 mps 738 mmHg 94%
    05:00 -4°C° 0.2 mm 4 mps 738 mmHg 94%
    06:00 -3°C° 0.2 mm 4 mps 737 mmHg 93%
    07:00 -2°C° 0.2 mm 4 mps 737 mmHg 92%
    08:00 -1°C° 0.2 mm 3 mps 737 mmHg 90%
    09:00 0°C° 0.2 mm 3 mps 736 mmHg 85%
    10:00 +1°C° 0.2 mm 3 mps 736 mmHg 79%
    11:00 0°C° 0.2 mm 4 mps 735 mmHg 74%
    12:00 0°C° 0.1 mm 4 mps 735 mmHg 75%
    13:00 0°C° 0.1 mm 4 mps 735 mmHg 76%
    14:00 0°C° 0.1 mm 4 mps 735 mmHg 77%
    15:00 +1°C° 0.1 mm 3 mps 734 mmHg 82%
    16:00 0°C° 0.1 mm 3 mps 734 mmHg 87%
    17:00 0°C° 0.1 mm 3 mps 734 mmHg 92%
    18:00 -1°C° 0.1 mm 3 mps 734 mmHg 92%
    19:00 -1°C° 0.1 mm 3 mps 734 mmHg 92%
    20:00 -1°C° 0.1 mm 3 mps 734 mmHg 91%
    21:00 -2°C° 0 mm 3 mps 734 mmHg 91%
    22:00 -2°C° 0 mm 3 mps 734 mmHg 91%
    23:00 -4°C° 0 mm 4 mps 734 mmHg 91%

    Day after tomorrow, 2 April, Thursday

    Time Temperature Precipitation Wind Pressure Humidity
    00:00 -4°C° 0 mm 4 mps 735 mmHg 90%
    01:00 -4°C° 0 mm 4 mps 735 mmHg 89%
    02:00 -4°C° 0 mm 4 mps 735 mmHg 88%
    03:00 -5°C° 0 mm 4 mps 736 mmHg 87%
    04:00 -5°C° 0 mm 4 mps 736 mmHg 86%
    05:00 -7°C° 0 mm 4 mps 736 mmHg 85%
    06:00 -7°C° 0 mm 4 mps 736 mmHg 83%
    07:00 -5°C° 0 mm 4 mps 737 mmHg 81%
    08:00 -5°C° 0 mm 4 mps 737 mmHg 79%
    09:00 -4°C° 0 mm 3 mps 737 mmHg 75%
    10:00 -2°C° 0 mm 3 mps 737 mmHg 72%
    11:00 -1°C° 0 mm 3 mps 737 mmHg 68%
    12:00 -1°C° 0 mm 3 mps 736 mmHg 73%
    13:00 -2°C° 0 mm 4 mps 736 mmHg 77%
    14:00 -2°C° 0 mm 4 mps 736 mmHg 82%
    15:00 -1°C° 0.3 mm 4 mps 735 mmHg 86%
    16:00 -1°C° 0.3 mm 5 mps 735 mmHg 91%
    17:00 -1°C° 0.3 mm 5 mps 734 mmHg 95%
    18:00 -1°C° 0.2 mm 5 mps 733 mmHg 95%
    19:00 -1°C° 0.2 mm 5 mps 733 mmHg 95%
    20:00 -1°C° 0.2 mm 5 mps 732 mmHg 95%
    21:00 -1°C° 0.1 mm 5 mps 732 mmHg 95%
    22:00 0°C° 0.1 mm 5 mps 731 mmHg 94%
    23:00 0°C° 0.1 mm 5 mps 730 mmHg 94%

    3 April, Friday

    Time Temperature Precipitation Wind Pressure Humidity
    00:00 -1°C° 0.1 mm 6 mps 730 mmHg 93%
    01:00 -1°C° 0.1 mm 6 mps 729 mmHg 93%
    02:00 -1°C° 0.1 mm 6 mps 728 mmHg 92%
    03:00 -1°C° 0.6 mm 6 mps 727 mmHg 93%
    04:00 -2°C° 0.6 mm 7 mps 727 mmHg 94%
    05:00 -2°C° 0.6 mm 8 mps 726 mmHg 95%
    06:00 -2°C° 0.8 mm 7 mps 726 mmHg 93%
    07:00 -2°C° 0.8 mm 7 mps 727 mmHg 90%
    08:00 -2°C° 0.8 mm 7 mps 727 mmHg 87%
    09:00 -2°C° 0.2 mm 6 mps 727 mmHg 83%
    10:00 -1°C° 0.2 mm 6 mps 727 mmHg 79%
    11:00 -1°C° 0.2 mm 6 mps 727 mmHg 75%
    12:00 -1°C° 0.3 mm 7 mps 727 mmHg 76%
    13:00 -1°C° 0.3 mm 7 mps 727 mmHg 78%
    14:00 -1°C° 0.3 mm 7 mps 727 mmHg 79%
    15:00 -1°C° 0.2 mm 6 mps 727 mmHg 82%
    16:00 -1°C° 0.2 mm 6 mps 728 mmHg 85%
    17:00 -1°C° 0.2 mm 5 mps 728 mmHg 87%
    18:00 -1°C° 0.1 mm 5 mps 729 mmHg 87%
    19:00 -2°C° 0.1 mm 5 mps 730 mmHg 86%
    20:00 -2°C° 0.1 mm 5 mps 731 mmHg 85%
    21:00 -4°C° 0 mm 5 mps 732 mmHg 83%
    22:00 -4°C° 0 mm 5 mps 733 mmHg 81%
    23:00 -5°C° 0 mm 5 mps 734 mmHg 79%

    4 April, Saturday

    Time Temperature Precipitation Wind Pressure Humidity
    00:00 -5°C° 0 mm 5 mps 735 mmHg 78%
    01:00 -6°C° 0 mm 5 mps 735 mmHg 78%
    02:00 -6°C° 0 mm 5 mps 736 mmHg 78%
    03:00 -5°C° 0 mm 4 mps 737 mmHg 78%
    04:00 -5°C° 0 mm 4 mps 737 mmHg 79%
    05:00 -5°C° 0 mm 4 mps 738 mmHg 80%
    06:00 -4°C° 0 mm 4 mps 738 mmHg 77%
    07:00 -5°C° 0 mm 5 mps 739 mmHg 75%
    08:00 -4°C° 0 mm 5 mps 739 mmHg 73%
    09:00 -4°C° 0.2 mm 6 mps 739 mmHg 69%
    10:00 -3°C° 0.2 mm 6 mps 740 mmHg 65%
    11:00 -3°C° 0.2 mm 6 mps 740 mmHg 61%
    12:00 -2°C° 0.1 mm 6 mps 741 mmHg 61%
    13:00 -2°C° 0.1 mm 6 mps 741 mmHg 61%
    14:00 -2°C° 0.1 mm 6 mps 742 mmHg 61%
    15:00 -1°C° 0.1 mm 5 mps 743 mmHg 60%
    16:00 -2°C° 0.1 mm 5 mps 743 mmHg 60%
    17:00 -2°C° 0.1 mm 5 mps 744 mmHg 60%
    18:00 -2°C° 0 mm 4 mps 745 mmHg 62%
    19:00 -3°C° 0 mm 4 mps 746 mmHg 65%
    20:00 -4°C° 0 mm 4 mps 746 mmHg 67%
    21:00 -4°C° 0 mm 4 mps 747 mmHg 68%
    22:00 -4°C° 0 mm 4 mps 748 mmHg 69%
    23:00 -4°C° 0 mm 4 mps 749 mmHg 70%

    5 April, Sunday

    Time Temperature Precipitation Wind Pressure Humidity
    00:00 -5°C° 0 mm 4 mps 749 mmHg 70%
    01:00 -5°C° 0 mm 4 mps 750 mmHg 70%
    02:00 -5°C° 0 mm 4 mps 750 mmHg 69%
    03:00 -7°C° 0 mm 4 mps 751 mmHg 69%
    04:00 -7°C° 0 mm 4 mps 752 mmHg 70%
    05:00 -7°C° 0 mm 4 mps 752 mmHg 70%
    06:00 -5°C° 0 mm 4 mps 752 mmHg 68%
    07:00 -5°C° 0 mm 5 mps 753 mmHg 66%
    08:00 -5°C° 0 mm 5 mps 753 mmHg 64%
    09:00 -4°C° 0.1 mm 5 mps 754 mmHg 59%
    10:00 -3°C° 0.1 mm 6 mps 754 mmHg 55%
    11:00 -3°C° 0.1 mm 6 mps 754 mmHg 50%
    12:00 -3°C° 0.1 mm 6 mps 755 mmHg 50%
    13:00 -2°C° 0.1 mm 6 mps 755 mmHg 49%
    14:00 -2°C° 0.1 mm 6 mps 755 mmHg 48%
    15:00 -2°C° 0 mm 5 mps 755 mmHg 50%
    16:00 -2°C° 0 mm 4 mps 755 mmHg 52%
    17:00 -1°C° 0 mm 3 mps 755 mmHg 54%
    18:00 -2°C° 0 mm 3 mps 755 mmHg 59%
    19:00 -2°C° 0 mm 2 mps 755 mmHg 65%
    20:00 -3°C° 0 mm 2 mps 755 mmHg 70%
    21:00 -3°C° 0 mm 2 mps 754 mmHg 74%
    22:00 -3°C° 0 mm 2 mps 754 mmHg 77%
    23:00 -3°C° 0 mm 2 mps 753 mmHg 81%
    Show more